Location: Koszewko
(53.2876°N, 14.9061°E)
Time: 22:56:24
(UTC+00:00)

ERS-1 Rocket - Pass Details

Date: 03 March 2021
Orbit: 752 x 758 km, 98.4° (Epoch: 12 April)

Event Time Altitude Azimuth Distance (km) Brightness Sun altitude
Exits shadow 20:04:09 38° 9° (N) 1,156 4.0 -29.7°
Drops below altitude 10° 20:07:23 10° 351° (N) 2,301 5.9 -30.1°
Sets 20:09:43 0° 347° (NNW) 3,230 6.9 -30.4°
